Regional Weather Roundup
Issued by NWS Northern Indiana

Home | Current Version | Previous Version | Text Only | Print | Product List | Glossary Off
Versions: 1 2 3 4 5 6 7 8 9 10 11 12 13 14 15 16 17 18 19 20 21 22 23 24 25 26 27 28 29 30 31 32 33 34 35 36 37 38 39 40 41 42 43 44 45 46 47 48 49 50

000
ASUS43 KIWX 210210
RWRIWX

KIWX WEATHER ROUNDUP
NATIONAL WEATHER SERVICE NORTHERN INDIANA
1000 PM EDT MON OCT 20 2014

NOTE: "FAIR" INDICATES FEW OR NO CLOUDS BELOW 12,000 FEET WITH NO
SIGNIFICANT WEATHER AND/OR OBSTRUCTIONS TO VISIBILITY.

* THESE STATIONS ARE NOT UNDER NWS QUALITY CONTROL. THEY ALSO MAY NOT
  REPORT WEATHER SUCH AS PRECIPITATION OR FOG.

INZ001>027-210300-
NORTHERN INDIANA

CITY           SKY/WX    TMP DP  RH WIND       PRES   REMARKS
GARY*          CLOUDY    55  48  76 N12       29.98R
VALPARAISO     CLOUDY    52  46  80 N5        29.97R
MICHIGAN CITY* DRIZZLE   52  43  71 N15G23    29.98R
LAPORTE*       CLOUDY    54  48  80 N7        29.96S
KNOX*          MOCLDY    49  45  85 N5        29.95R
SOUTH BEND     CLOUDY    52  47  83 NW8       29.96R
GOSHEN         CLOUDY    52  46  80 NW14      29.93R
MONTICELLO*    PTCLDY    51  47  86 N6        29.94S
LOGANSPORT*    MOCLDY    52  45  76 N8        29.95S
ROCHESTER*     MOCLDY    54  46  76 N12       29.95R
WARSAW*        CLOUDY    52  45  76 N9        29.93R
ANGOLA*        CLOUDY    52  46  82 NW8       29.91R
FORT WAYNE     CLOUDY    54  47  77 NW8       29.92R
HUNTINGTON*    CLOUDY    53  48  83 NW7       29.92R
PERU/GRISSOM   MOCLDY    53  53  99 N10       29.94R
MARION*        CLOUDY    54  46  74 NW9G17    29.94R

$$
INZ028>050-210300-
CENTRAL INDIANA

CITY           SKY/WX    TMP DP  RH WIND       PRES   REMARKS
LAFAYETTE      CLEAR     52  46  80 N7        29.95R
KOKOMO*        CLOUDY    54  46  76 N12G18    29.95R
MUNCIE*        PTCLDY    53  47  79 NW6       29.90R
INDIANAPOLIS   PTCLDY    55  47  74 W8        29.92R

$$
MIZ043>046-050>051-056>058-064>065-071>073-077>080-210300-
SOUTHWEST LOWER MICHIGAN

CITY           SKY/WX    TMP DP  RH WIND       PRES   REMARKS
BATTLE CREEK   CLOUDY    52  42  69 N14       29.92R
BENTON HARBOR  CLOUDY    52  45  77 VRB7G17   29.96R
COLDWATER*     CLOUDY    53  48  83 NW8       29.91R
HILLSDALE*     CLOUDY    53  51  93 NW7       29.89R
HOLLAND        CLOUDY    51  43  74 N8        29.96R
GRAND RAPIDS   CLOUDY    50  43  77 NW13      29.93R
KALAMAZOO      CLOUDY    51  43  74 N14       29.93R
STURGIS*       CLOUDY    52  45  76 NW10      29.92R
THREE RIVERS*  CLOUDY    52  45  76 NW8       29.93R

$$
OHZ001>008-015>018-024>025-210300-
NORTHWEST OHIO

CITY           SKY/WX    TMP DP  RH WIND       PRES   REMARKS
WAUSEON*       MOCLDY    52  50  93 NW6       29.87R
DEFIANCE       CLOUDY    54  49  83 NW7       29.89R
FINDLAY        MOCLDY    51  49  92 W5        29.87R FOG
TOLEDO EXPRESS CLOUDY    51  49  92 W8        29.86R
TOLEDO METCALF CLOUDY    53  50  89 W7        29.87R
LIMA           CLOUDY    54  51  90 NW6       29.88R

$$
AND FOR LAKE MICHIGAN COASTAL AND OPEN LAKE BUOY OBSERVATIONS

STATION/POSITION TEMP    WIND        PRES    VSBY  WAVE
                 AIR SEA DIR/SP/G                  HT/PER
                 (F)     (DEG/KT/KT) (MB)    (MI)  (FT/S)
CALUMET HARBOR           340/  9/ 13   N/A
MICHIGAN CITY     53     350/ 22/ 26   N/A
SAINT JOSEPH      53                 1015.6R
SOUTH LAKE BUOY   52 55  340/ 12/ 16 1015.0R         3/ 5

$$
&&



USA.gov is the U.S. government's official web portal to all federal, state and local government web resources and services.